DLH481 KDEN-EDDM

Flight info

Callsign DLH481
Flight time N/A
Altitude 37000
Route EEONS8 WYNDM DCT OBH DCT ODI DCT KP87K DCT SSM DCT YUY/N0491F390 DCT MT DCT OMTOL DCT EXPOS DCT JANJO/M084F400 NATT KESIX/N0484F410 DCT APSOV DCT PEPOD DCT MAKUX DCT SOSIM L15 GIGTO UQ4 WAL M16 DOLAS DCT NAVPI DCT DOJOH DCT DODEN/N0458F330 DCT TABUM DCT BOMBI T104 HAREM/N0422F270 T104 ROKIL ROKIL1B
Aircraft A359/H-SADE2E3GHIJ1J2J3J4J5M1P2RWXYZ/LB1D1

Departure

Time 2026-05-06 20:29
Airport Denver International Airport (KDEN)

Arrival

Time N/A
Airport Munich Airport (EDDM)
Time Latitude Longitude Altitude Speed Heading
2026-05-06 19:57 39.85444 -104.67311 5372 ft 0 kts 179°
2026-05-06 20:15 39.85456 -104.67311 5369 ft 4 kts 180°
2026-05-06 20:16 39.85477 -104.67312 5369 ft 4 kts 180°
2026-05-06 20:16 39.85498 -104.67312 5368 ft 4 kts 180°
2026-05-06 20:16 39.85520 -104.67312 5368 ft 0 kts 180°
2026-05-06 20:21 39.85518 -104.67310 5368 ft 1 kts 171°
2026-05-06 20:21 39.85518 -104.67290 5368 ft 4 kts 70°
2026-05-06 20:22 39.85572 -104.67216 5368 ft 16 kts 45°
2026-05-06 20:22 39.85647 -104.67111 5368 ft 15 kts 60°
2026-05-06 20:22 39.85661 -104.66974 5369 ft 17 kts 89°
2026-05-06 20:22 39.85660 -104.66821 5371 ft 17 kts 90°
2026-05-06 20:23 39.85659 -104.66666 5371 ft 18 kts 90°
2026-05-06 20:23 39.85674 -104.66529 5371 ft 14 kts 79°
2026-05-06 20:23 39.85679 -104.66406 5369 ft 13 kts 90°
2026-05-06 20:23 39.85680 -104.66290 5369 ft 12 kts 81°
2026-05-06 20:24 39.85735 -104.66233 5370 ft 10 kts
2026-05-06 20:24 39.85817 -104.66231 5370 ft 15 kts 360°
2026-05-06 20:24 39.85933 -104.66231 5370 ft 17 kts
2026-05-06 20:24 39.86058 -104.66230 5368 ft 20 kts
2026-05-06 20:25 39.86216 -104.66227 5370 ft 25 kts
2026-05-06 20:25 39.86391 -104.66225 5368 ft 25 kts
2026-05-06 20:25 39.86559 -104.66223 5370 ft 23 kts
2026-05-06 20:25 39.86665 -104.66221 5369 ft 23 kts
2026-05-06 20:26 39.86822 -104.66220 5370 ft 24 kts
2026-05-06 20:26 39.87051 -104.66216 5370 ft 24 kts
2026-05-06 20:26 39.87222 -104.66214 5370 ft 26 kts
2026-05-06 20:26 39.87408 -104.66212 5370 ft 26 kts
2026-05-06 20:27 39.87585 -104.66210 5370 ft 21 kts
2026-05-06 20:27 39.87700 -104.66208 5370 ft 14 kts
2026-05-06 20:27 39.87749 -104.66202 5369 ft 3 kts 26°
2026-05-06 20:27 39.87758 -104.66179 5369 ft 3 kts 74°
2026-05-06 20:28 39.87761 -104.66148 5369 ft 4 kts 85°
2026-05-06 20:28 39.87761 -104.66129 5368 ft 0 kts 90°
2026-05-06 20:28 39.87761 -104.66085 5368 ft 24 kts 90°
2026-05-06 20:28 39.87757 -104.65582 5370 ft 86 kts 90°
2026-05-06 20:29 39.87750 -104.64527 5364 ft 147 kts 90°
2026-05-06 20:29 39.87736 -104.62988 5619 ft 178 kts 90°
2026-05-06 20:29 39.87732 -104.61390 6529 ft 175 kts 88°
2026-05-06 20:29 39.87855 -104.59739 6941 ft 192 kts 81°
2026-05-06 20:30 39.88077 -104.57943 7182 ft 210 kts 80°
2026-05-06 20:30 39.88575 -104.54572 7555 ft 244 kts 77°
2026-05-06 20:30 39.88985 -104.52337 7868 ft 263 kts 75°
2026-05-06 20:31 39.89495 -104.49986 8340 ft 275 kts 73°
2026-05-06 20:31 39.90056 -104.47581 9003 ft 280 kts 73°
2026-05-06 20:31 39.90629 -104.45142 9662 ft 283 kts 73°
2026-05-06 20:31 39.91208 -104.42671 10040 ft 287 kts 73°
2026-05-06 20:32 39.92008 -104.39249 10460 ft 310 kts 72°
2026-05-06 20:32 39.92430 -104.37393 10676 ft 322 kts 73°
2026-05-06 20:32 39.93057 -104.34510 10998 ft 339 kts 74°
2026-05-06 20:32 39.93709 -104.31496 11428 ft 351 kts 73°
2026-05-06 20:33 39.94378 -104.28413 12048 ft 357 kts 73°
2026-05-06 20:33 39.95059 -104.25281 12674 ft 362 kts 73°
2026-05-06 20:33 39.95751 -104.22103 13321 ft 367 kts 73°
2026-05-06 20:33 39.96452 -104.18885 13961 ft 372 kts 72°
2026-05-06 20:34 39.97131 -104.15600 14465 ft 379 kts 76°
2026-05-06 20:34 39.97591 -104.12189 14971 ft 385 kts 80°
2026-05-06 20:34 39.97972 -104.08710 15480 ft 391 kts 81°
2026-05-06 20:34 39.98351 -104.05175 15991 ft 396 kts 81°
2026-05-06 20:35 39.98734 -104.01607 16669 ft 396 kts 80°
2026-05-06 20:35 39.99112 -103.98084 17602 ft 390 kts 80°
2026-05-06 20:35 39.99487 -103.94607 18517 ft 385 kts 80°
2026-05-06 20:35 39.99858 -103.91190 19313 ft 372 kts 79°
2026-05-06 20:36 40.00267 -103.87920 20150 ft 361 kts 82°
2026-05-06 20:36 40.00361 -103.84695 20707 ft 364 kts 91°
2026-05-06 20:36 40.00280 -103.81309 21014 ft 372 kts 92°
2026-05-06 20:36 40.00178 -103.77965 21463 ft 375 kts 92°
2026-05-06 20:37 40.00076 -103.74554 21940 ft 378 kts 92°
2026-05-06 20:37 39.99977 -103.71082 22164 ft 390 kts 92°
2026-05-06 20:37 39.99877 -103.67482 22238 ft 405 kts 92°
2026-05-06 20:37 39.99774 -103.63761 22466 ft 416 kts 92°
2026-05-06 20:38 39.99672 -103.59947 22705 ft 426 kts 92°
2026-05-06 20:38 39.99569 -103.56043 22946 ft 437 kts 92°
2026-05-06 20:38 39.99671 -103.52036 23174 ft 447 kts 82°
2026-05-06 20:38 40.00252 -103.48020 23485 ft 455 kts 76°
2026-05-06 20:39 40.00989 -103.43966 23745 ft 464 kts 75°
2026-05-06 20:39 40.01769 -103.39867 24182 ft 466 kts 75°
2026-05-06 20:39 40.02557 -103.35766 24707 ft 467 kts 75°
2026-05-06 20:39 40.03350 -103.31656 25210 ft 468 kts 75°
2026-05-06 20:40 40.04145 -103.27536 25707 ft 469 kts 74°
2026-05-06 20:40 40.04943 -103.23403 26173 ft 470 kts 74°
2026-05-06 20:40 40.05743 -103.19257 26644 ft 472 kts 74°
2026-05-06 20:40 40.06544 -103.15093 27104 ft 474 kts 74°
2026-05-06 20:41 40.07349 -103.10908 27471 ft 479 kts 75°
2026-05-06 20:41 40.08164 -103.06658 27684 ft 486 kts 75°
2026-05-06 20:41 40.08984 -103.02371 28130 ft 487 kts 75°